TIME,DELAY(SENSOR),PRES,OXYGEN,RAWTEMP,T(OPTODE),TCPHASE,FLUOR,BETA(BETA700),BETA(BETA412),BETA(BETA440),CDOM,C(CSC),ED(ED411.90),ED(ED443.80),ED(ED489.40),ED(ED554.70),LU(LU412.20),LU(LU443.80),LU(LU489.40),LU(LU555.00),COMP,TILTX,TILTY,CHECK
1362867491,5807,872.5900268554688000,185.4692993164062500,485.3070983886719000,7.9846210479736330,38.5747108459472660,76,448,97,78,80,11611,2146960173,2147518418,2147291145,2147511414,2147091145,2146927305,2147714733,2147119744,3012,-1,9,30179
1362871087,5807,965.2299804687500000,244.6087951660156200,554.6433715820312000,5.8236060142517090,36.3916511535644500,76,462,98,78,81,11601,2146964745,2147513270,2147296923,2147527707,2147087917,2146916324,2147729362,2147121737,431,-1,8,17196
1362874687,5806,990.2199707031250000,255.1753997802734400,558.8477172851562000,5.6914138793945310,35.9498710632324200,75,457,97,79,80,11603,2146962486,2147513033,2147300160,2147523977,2147083830,2146918034,2147728603,2147120594,3097,-1,9,38226
1362878287,5806,989.9600219726562000,254.3262023925781200,561.5220947265625000,5.6072521209716800,36.0389785766601560,75,455,98,79,80,11598,2146964909,2147518226,2147302061,2147526409,2147086564,2146910646,2147729737,2147117019,3569,-1,8,21881
1362881887,5807,992.3800048828125000,260.3427124023437500,566.1776733398438000,5.4605979919433590,35.8384208679199200,76,455,97,80,79,11601,2146960868,2147518491,2147305206,2147526857,2147088630,2146915090,2147737883,2147117193,3439,-1,9,46278
1362885487,5806,998.0499877929688000,262.3887939453125000,567.4395141601562000,5.4208221435546875,35.7657203674316400,74,481,128,79,82,11598,2146961398,2147519798,2147301769,2147529152,2147088228,2146913206,2147732598,2147120009,3462,-1,9,49435
1362889087,5804,1004.2999877929688000,262.3295898437500000,565.2750244140625000,5.4890480041503910,35.7288093566894500,75,453,99,78,81,11594,2146963593,2147517101,2147300928,2147527323,2147087497,2146915757,2147734637,2147122889,3309,-1,9,48651
1362892687,5805,1005.8300170898438000,262.4356994628906000,567.4818115234375000,5.4194889068603520,35.7645301818847660,74,449,97,79,79,11596,2146962349,2147516781,2147299821,2147527844,2147087360,2146917787,2147735716,2147118811,3453,-1,9,51339
1362896287,5806,1008.1699829101562000,261.1068115234375000,565.1306152343750000,5.4935989379882810,35.7829399108886700,74,450,99,79,80,11593,2146959030,2147512137,2147302299,2147529362,2147085019,2146914706,2147736182,2147120036,3575,-1,9,12259
1362899887,5804,1008.2500000000000000,259.8812866210937500,564.9533081054688000,5.4991860389709470,35.8373298645019500,73,447,96,78,81,11593,2146957979,2147517842,2147304073,2147527817,2147083821,2146912429,2147736512,2147122678,3520,0,8,436
1362903487,5806,1006.0200195312500000,259.5086059570312500,565.2053222656250000,5.4912447929382320,35.8600006103515600,72,445,98,78,80,11596,2146963382,2147516333,2147301211,2147524864,2147090294,2146914404,2147734208,2147120941,3150,-1,8,40965
1362907087,5804,1003.7600097656250000,262.1296997070312500,568.2479248046875000,5.3953299522399900,35.7923316955566400,74,465,99,78,79,11595,2146958308,2147518025,2147302720,2147525705,2147087817,2146920996,2147733732,2147118811,3507,0,8,8511
1362910687,5806,1004.5100097656250000,264.4509887695312500,569.5797729492188000,5.3533191680908200,35.7092208862304700,75,470,99,78,81,11594,2146964214,2147516772,2147303734,2147522889,2147085760,2146916315,2147738038,2147121600,1009,-1,8,61335
1362914287,5807,1003.9799804687500000,265.4690856933594000,569.8159790039062000,5.3458647727966310,35.6663398742675800,74,468,99,78,80,11590,2146965083,2147519588,2147302555,2147523657,2147086208,2146917458,2147732187,2147119460,3241,-1,9,3704
1362917887,5808,1008.6900024414062000,265.7941894531250000,569.3743286132812000,5.3597998619079590,35.6433296203613300,74,458,97,79,80,11589,2146964946,2147514816,2147300882,2147528201,2147090541,2146916580,2147734180,2147116781,68,0,8,40682
1362921487,5809,1009.4000244140625000,266.2369995117187500,569.3715820312500000,5.3598880767822270,35.6233711242675800,74,457,99,79,81,11591,2146961316,2147517065,2147300315,2147528393,2147088640,2146914944,2147733686,2147121024,3587,-1,9,59012
1362925087,5804,1013.2399902343750000,264.9107971191406000,567.4252929687500000,5.4212698936462400,35.6485404968261700,74,461,97,79,80,11591,2146959899,2147514797,2147300626,2147522596,2147089124,2146916580,2147730048,2147121417,3327,-1,8,55143
1362928687,5805,1011.5900268554688000,263.7976074218750000,568.7819213867188000,5.3784871101379395,35.7245903015136700,75,454,98,78,80,11587,2146959734,2147515977,2147303195,2147525476,2147085211,2146914331,2147735350,2147117933,548,0,8,9627
1362932287,5804,1013.0499877929688000,263.8866882324219000,567.2714843750000000,5.4261188507080080,35.6933212280273440,73,455,100,77,80,11589,2146959378,2147520621,2147302500,2147526884,2147088832,2146910070,2147732214,2147119817,3483,-1,9,43457
1362935887,5806,1010.6900024414062000,261.4926147460937500,566.5817871093750000,5.4478631019592285,35.7919616699218750,75,450,98,78,81,11588,2146961024,2147513718,2147302738,2147525568,2147087268,2146912475,2147732342,2147119488,3164,-1,8,58424
1362939487,5806,1011.1900024414062000,263.5747985839844000,567.5944213867188000,5.4159369468688965,35.7130012512207000,72,449,97,79,80,11588,2146965842,2147517348,2147302528,2147522066,2147090358,2146911414,2147732114,2147120640,3103,-1,9,9317
1362943087,5810,1011.6199951171875000,264.7987060546875000,567.6657714843750000,5.4136848449707030,35.6580314636230500,73,448,97,79,81,11589,2146962166,2147516544,2147302189,2147526208,2147085888,2146919085,2147733586,2147117869,53,-1,8,56243
1362946687,5803,1017.5900268554688000,263.1979980468750000,565.9672851562500000,5.4672322273254395,35.7009315490722660,72,446,98,78,80,11587,2146962962,2147513554,2147297792,2147524397,2147089627,2146912548,2147730788,2147119652,153,-1,8,32686
1362950287,5806,1016.6300048828125000,261.8739929199219000,564.9412841796875000,5.4995632171630860,35.7440910339355500,73,450,99,78,80,11584,2146960310,2147518262,2147302125,2147523328,2147088484,2146916589,2147731355,2147118710,3316,-1,9,16706
1362953887,5809,1014.8099975585938000,262.7034912109375000,566.4771728515625000,5.4511590003967285,35.7332801818847660,73,448,98,79,81,11584,2146961609,2147519515,2147300818,2147523949,2147088996,2146913133,2147732726,2147119524,103,-1,8,4026
1362957487,5805,1008.8200073242188000,262.7402954101562500,567.1525268554688000,5.4298729896545410,35.7437400817871100,73,452,97,79,80,11581,2146961618,2147517888,2147302217,2147524242,2147089353,2146915666,2147733458,2147120146,3568,-1,9,23287
1362961087,5803,1014.4400024414062000,263.8096008300781000,567.2211914062500000,5.4277038574218750,35.6954307556152340,73,450,98,79,79,11581,2146964397,2147519058,2147300626,2147525650,2147090889,2146912384,2147730523,2147118939,3435,-1,9,45229
1362964687,5803,1013.7899780273438000,261.5499877929687500,567.6729125976562000,5.4134640693664550,35.8091201782226560,73,447,98,80,80,11580,2146961453,2147517805,2147298916,2147525641,2147088713,2146914258,2147731437,2147121828,2994,-1,8,56810
1362968287,5806,1013.7899780273438000,263.0219116210937500,567.5150756835938000,5.4184379577636720,35.7375183105468750,74,449,99,78,81,11572,2146965229,2147519817,2147301339,2147525686,2147087972,2146921600,2147733833,2147121709,3144,-1,9,6306
1362971887,5806,1018.9000244140625000,263.6742858886719000,567.6782226562500000,5.4132962226867680,35.7102584838867200,72,450,98,79,80,11577,2146964489,2147517924,2147302061,2147525686,2147088576,2146916361,2147734153,2147120182,238,-1,8,30762
1362975487,5805,1015.9500122070312000,263.5560913085937500,567.6832275390625000,5.4131369590759280,35.7157402038574200,74,458,98,80,80,11575,2146962432,2147518390,2147299894,2147526628,2147086061,2146917165,2147733385,2147120155,3160,0,8,56408
1362979087,5805,1009.3499755859375000,263.8479003906250000,567.6248168945312000,5.4149799346923830,35.7010688781738300,73,457,98,79,80,11578,2146961920,2147519122,2147302683,2147527451,2147086628,2146916717,2147734628,2147121069,3346,0,8,2272
1362982687,5802,1013.4400024414062000,266.3447875976562500,569.3414916992188000,5.3608360290527340,35.6179008483886700,72,452,98,82,81,11578,2146962560,2147519158,2147302546,2147526902,2147087021,2146916452,2147737865,2147114834,3497,-1,8,27460
1362986287,5806,1018.3300170898438000,265.9342956542969000,569.3405151367188000,5.3608670234680180,35.6362495422363300,73,451,98,80,80,11576,2146959643,2147519670,2147303040,2147524946,2147084553,2146913609,2147734299,2147120128,3280,-1,8,18634
1362989887,5806,1013.9799804687500000,265.3837890625000000,569.3212280273438000,5.3614788055419920,35.6612014770507800,73,453,100,79,80,11575,2146960512,2147517778,2147300864,2147530541,2147086994,2146917248,2147736905,2147119186,3510,-1,8,32546
1362993487,5808,1012.4699707031250000,265.9606933593750000,569.1746826171875000,5.3660979270935060,35.6320304870605500,71,455,97,78,79,11575,2146965686,2147518336,2147302244,2147524946,2147088493,2146914258,2147736493,2147119634,180,-1,8,31635
1362997087,5806,1007.6400146484375000,266.4041137695312500,570.4951171875000000,5.3244380950927730,35.6362800598144500,72,453,98,80,80,11572,2146961389,2147517558,2147303021,2147525632,2147091629,2146913746,2147734436,2147118902,389,-1,9,52312
1363000687,5807,1016.0499877929688000,266.4558105468750000,569.4050292968750000,5.3588328361511230,35.6135101318359400,73,453,98,78,80,11568,2146961426,2147518226,2147299282,2147526555,2147088118,2146913142,2147736228,2147120886,236,-1,8,4666
1363004287,5806,1019.9500122070312000,266.0369873046875000,569.4204711914062000,5.3583450317382810,35.6331291198730500,73,452,99,79,80,11568,2146965394,2147519588,2147302107,2147525037,2147089435,2146918637,2147735954,2147120557,3458,-1,9,59565
1363007887,5806,1025.8100585937500000,264.4359130859375000,567.6397094726562000,5.4145088195800780,35.6742782592773440,73,451,98,78,80,11566,2146961910,2147521325,2147303862,2147524690,2147089243,2146919753,2147736694,2147121133,142,-1,8,18702
1363011487,5805,1024.8699951171875000,262.2484130859375000,565.2183227539062000,5.4908370971679690,35.7315902709960940,73,450,97,78,81,11570,2146959680,2147521846,2147303597,2147525504,2147089938,2146916050,2147737398,2147119698,390,-1,8,9792
1363012556,5808,1022.0300292968750000,261.0253906250000000,565.2374267578125000,5.4902338981628420,35.7892112731933600,74,451,99,78,81,11570,2146961947,2147517796,2147304356,2147523318,2147085961,2146914148,2147731876,2147115995,3573,-1,9,63312
